Weather History for Pittsfield, IL

Change the Weather History Date:

Monday, February 24, 2014

  Actual Average (KUIN) Record (KUIN)
Temperature  
Mean Temperature 25 °F 34 °F  
Max Temperature 28 °F 42 °F 73 °F (1930)
Min Temperature 22 °F 25 °F -2 °F (1989)
Degree Days  
Heating Degree Days 40 31  
Month to date heating degree days 835  
Since 1 July heating degree days 4221  
Cooling Degree Days 0 0  
Month to date cooling degree days 0  
Year to date cooling degree days 0  
Moisture  
Dew Point 16 °F    
Average Humidity 66    
Maximum Humidity 79    
Minimum Humidity 51    
Precipitation  
Precipitation 0.00 in 0.08 in 1.59 in (2001)
Month to date precipitation 1.56  
Year to date precipitation 3.08  
Sea Level Pressure  
Sea Level Pressure 30.33 in    
Wind  
Wind Speed 5 mph (North)    
Max Wind Speed 8 mph    
Max Gust Speed -    
Visibility 10 miles    
Events      
T = Trace of Precipitation, MM = Missing Value Source: NWS Daily Summary

Daily Weather History Graph

Daily Weather History Graph

Search for Another Location

Airport:

Trip Planner

Search our weather history database for the weather conditions in past years. The results will help you decide how hot, cold, wet, or windy it might be!

Date:

Astronomy

Feb. 24, 2014 Rise Set
Actual Time 6:43 AM CST 5:49 PM CST
Civil Twilight 6:16 AM CST 6:17 PM CST
Nautical Twilight 5:44 AM CST 6:48 PM CST
Astronomical Twilight 5:13 AM CST 7:19 PM CST
Moon 2:41 AM CST (2/24) 12:51 PM CST (2/24)
Length of Visible Light 12h 00m
Length of Day
11h 06m
Waning Crescent, 28% of the Moon is Illuminated
Feb 24
Waning Crescent
Mar 1
New
Mar 8
First Quarter
Mar 16
Full
Mar 23
Last Quarter

Hourly Weather History & Observations

Time (CST) Temp. Windchill Dew Point Humidity Pressure Visibility Wind Dir Wind Speed Gust Speed Precip Events Conditions
12:15 AM 24.4 °F 20.1 °F 17.2 °F 74% 30.34 in 10.0 mi NW 3.5 mph - N/A   Clear
12:35 AM 23.9 °F 19.5 °F 16.3 °F 73% 30.35 in 10.0 mi NW 3.5 mph - N/A   Clear
12:55 AM 23.0 °F 15.8 °F 17.1 °F 78% 30.35 in 10.0 mi NW 5.8 mph - N/A   Clear
1:15 AM 23.5 °F 16.4 °F 16.2 °F 73% 30.34 in 10.0 mi NW 5.8 mph - N/A   Clear
1:35 AM 23.9 °F 18.0 °F 16.5 °F 73% 30.35 in 10.0 mi NW 4.6 mph - N/A   Clear
1:55 AM 23.9 °F 18.0 °F 15.8 °F 71% 30.34 in 10.0 mi NW 4.6 mph - N/A   Clear
2:15 AM 23.7 °F 19.3 °F 15.6 °F 71% 30.35 in 10.0 mi WNW 3.5 mph - N/A   Clear
2:35 AM 23.9 °F 16.8 °F 15.6 °F 71% 30.33 in 10.0 mi NW 5.8 mph - N/A   Clear
2:55 AM 23.5 °F 16.4 °F 14.9 °F 70% 30.34 in 10.0 mi NW 5.8 mph - N/A   Clear
3:15 AM 23.4 °F 16.2 °F 15.8 °F 73% 30.33 in 10.0 mi NW 5.8 mph - N/A   Clear
3:35 AM 22.8 °F 14.5 °F 16.0 °F 75% 30.33 in 10.0 mi NNW 6.9 mph - N/A   Clear
3:55 AM 22.8 °F 13.6 °F 15.4 °F 73% 30.33 in 10.0 mi NNW 8.1 mph - N/A   Clear
4:15 AM 23.0 °F 13.9 °F 14.9 °F 71% 30.34 in 10.0 mi NNW 8.1 mph - N/A   Clear
4:35 AM 23.0 °F 13.9 °F 14.5 °F 70% 30.33 in 10.0 mi NNW 8.1 mph - N/A   Clear
4:55 AM 23.4 °F 14.3 °F 15.1 °F 71% 30.34 in 10.0 mi NNW 8.1 mph - N/A   Clear
5:15 AM 23.4 °F 16.2 °F 14.7 °F 70% 30.35 in 10.0 mi NNW 5.8 mph - N/A   Clear
5:35 AM 23.4 °F 16.2 °F 14.5 °F 69% 30.36 in 10.0 mi NW 5.8 mph - N/A   Scattered Clouds
5:55 AM 23.2 °F 17.2 °F 13.5 °F 66% 30.36 in 10.0 mi WNW 4.6 mph - N/A   Scattered Clouds
6:16 AM 23.5 °F 16.4 °F 14.5 °F 69% 30.36 in 10.0 mi NW 5.8 mph - N/A   Scattered Clouds
6:35 AM 23.5 °F 15.4 °F 14.5 °F 69% 30.36 in 10.0 mi NW 6.9 mph - N/A   Scattered Clouds
6:55 AM 23.7 °F 17.8 °F 14.2 °F 67% 30.36 in 10.0 mi NW 4.6 mph - N/A   Clear
7:15 AM 23.9 °F 16.8 °F 14.4 °F 67% 30.36 in 10.0 mi NW 5.8 mph - N/A   Scattered Clouds
7:35 AM 23.9 °F 16.8 °F 14.0 °F 66% 30.37 in 10.0 mi NW 5.8 mph - N/A   Clear
7:55 AM 24.6 °F 17.7 °F 13.6 °F 63% 30.37 in 10.0 mi NW 5.8 mph - N/A   Scattered Clouds
8:15 AM 24.6 °F 16.7 °F 14.4 °F 65% 30.38 in 10.0 mi NW 6.9 mph - N/A   Clear
8:35 AM 24.8 °F 17.9 °F 14.4 °F 65% 30.38 in 10.0 mi NW 5.8 mph - N/A   Clear
8:55 AM 25.5 °F 17.8 °F 14.7 °F 64% 30.38 in 10.0 mi NNW 6.9 mph - N/A   Clear
9:15 AM 25.7 °F 19.0 °F 14.5 °F 63% 30.39 in 10.0 mi NNW 5.8 mph - N/A   Scattered Clouds
9:35 AM 26.2 °F 22.1 °F 14.7 °F 62% 30.40 in 10.0 mi NW 3.5 mph - N/A   Scattered Clouds
9:55 AM 26.4 °F 18.9 °F 14.4 °F 60% 30.39 in 10.0 mi NNW 6.9 mph - N/A   Mostly Cloudy
10:15 AM 26.8 °F 22.8 °F 14.9 °F 61% 30.39 in 10.0 mi North 3.5 mph - N/A   Overcast
10:35 AM 27.0 °F 18.7 °F 14.7 °F 60% 30.39 in 10.0 mi North 8.1 mph - N/A   Overcast
10:56 AM 26.6 °F - 14.9 °F 61% 30.38 in 10.0 mi Calm Calm - N/A   Overcast
11:15 AM 27.0 °F 23.0 °F 14.4 °F 59% 30.39 in 10.0 mi NNE 3.5 mph - N/A   Overcast
11:35 AM 27.5 °F - 14.2 °F 57% 30.39 in 10.0 mi Calm Calm - N/A   Overcast
11:55 AM 27.5 °F 23.6 °F 13.8 °F 56% 30.38 in 10.0 mi WNW 3.5 mph - N/A   Overcast
12:15 PM 28.2 °F 24.4 °F 13.3 °F 54% 30.38 in 10.0 mi NW 3.5 mph - N/A   Overcast
12:35 PM 28.0 °F - 12.9 °F 53% 30.37 in 10.0 mi Calm Calm - N/A   Overcast
12:55 PM 28.2 °F - 14.0 °F 55% 30.37 in 10.0 mi Calm Calm - N/A   Overcast
1:15 PM 28.2 °F - 12.0 °F 51% 30.35 in 10.0 mi Calm Calm - N/A   Overcast
1:35 PM 28.4 °F 22.2 °F 13.1 °F 53% 30.35 in 10.0 mi NNW 5.8 mph - N/A   Overcast
1:55 PM 28.6 °F 22.4 °F 13.6 °F 54% 30.33 in 10.0 mi North 5.8 mph - N/A   Overcast
2:15 PM 28.2 °F 22.0 °F 13.6 °F 54% 30.33 in 10.0 mi North 5.8 mph - N/A   Overcast
2:35 PM 28.0 °F 20.8 °F 15.8 °F 60% 30.32 in 10.0 mi North 6.9 mph - N/A   Overcast
2:55 PM 27.5 °F 21.1 °F 16.7 °F 64% 30.31 in 10.0 mi NNE 5.8 mph - N/A   Overcast
3:15 PM 27.0 °F 20.5 °F 18.7 °F 71% 30.30 in 10.0 mi NE 5.8 mph - N/A   Overcast
3:35 PM 27.0 °F 21.6 °F 18.1 °F 69% 30.30 in 10.0 mi NNE 4.6 mph - N/A   Overcast
3:55 PM 27.0 °F 23.0 °F 18.0 °F 69% 30.30 in 10.0 mi North 3.5 mph - N/A   Overcast
4:15 PM 27.1 °F 23.2 °F 17.6 °F 67% 30.29 in 10.0 mi North 3.5 mph - N/A   Overcast
4:35 PM 27.1 °F 21.8 °F 16.0 °F 63% 30.29 in 10.0 mi NNE 4.6 mph - N/A   Overcast
4:55 PM 27.1 °F 23.2 °F 16.3 °F 64% 30.28 in 10.0 mi NNE 3.5 mph - N/A   Overcast
5:15 PM 27.1 °F - 15.8 °F 62% 30.28 in 10.0 mi Calm Calm - N/A   Overcast
5:35 PM 27.1 °F 23.2 °F 16.0 °F 63% 30.28 in 10.0 mi NE 3.5 mph - N/A   Overcast
5:55 PM 27.0 °F 21.6 °F 16.2 °F 64% 30.28 in 10.0 mi NE 4.6 mph - N/A   Overcast
6:15 PM 27.0 °F 23.0 °F 16.5 °F 65% 30.28 in 10.0 mi ENE 3.5 mph - N/A   Overcast
6:35 PM 27.0 °F 21.6 °F 16.5 °F 65% 30.27 in 10.0 mi ENE 4.6 mph - N/A   Overcast
6:55 PM 27.0 °F 23.0 °F 16.9 °F 66% 30.27 in 10.0 mi ENE 3.5 mph - N/A   Overcast
7:15 PM 27.0 °F - 17.4 °F 67% 30.27 in 10.0 mi Calm Calm - N/A   Overcast
7:35 PM 26.8 °F - 16.5 °F 65% 30.28 in 10.0 mi Calm Calm - N/A   Overcast
7:55 PM 27.0 °F - 17.1 °F 66% 30.28 in 10.0 mi Calm Calm - N/A   Overcast
8:15 PM 26.8 °F - 17.1 °F 67% 30.28 in 10.0 mi Calm Calm - N/A   Overcast
8:35 PM 27.0 °F - 16.9 °F 66% 30.28 in 10.0 mi Calm Calm - N/A   Overcast
8:55 PM 26.8 °F 22.8 °F 16.3 °F 65% 30.28 in 10.0 mi NNE 3.5 mph - N/A   Overcast
9:15 PM 27.0 °F 23.0 °F 16.5 °F 65% 30.27 in 10.0 mi ENE 3.5 mph - N/A   Overcast
9:35 PM 27.0 °F 23.0 °F 16.3 °F 64% 30.26 in 10.0 mi ENE 3.5 mph - N/A   Overcast
9:55 PM 26.8 °F 22.8 °F 15.1 °F 61% 30.26 in 10.0 mi NE 3.5 mph - N/A   Overcast
10:15 PM 26.6 °F 21.2 °F 16.5 °F 66% 30.26 in 10.0 mi NNE 4.6 mph - N/A   Overcast
10:35 PM 26.2 °F 19.6 °F 17.8 °F 70% 30.25 in 10.0 mi ENE 5.8 mph - N/A   Overcast
10:55 PM 26.1 °F 18.4 °F 18.5 °F 73% 30.27 in 10.0 mi NNE 6.9 mph - N/A   Overcast
11:15 PM 25.7 °F 20.1 °F 19.0 °F 76% 30.26 in 10.0 mi NNE 4.6 mph - N/A   Overcast
11:35 PM 25.5 °F 19.9 °F 19.4 °F 78% 30.26 in 10.0 mi NNE 4.6 mph - N/A   Overcast
11:55 PM 25.3 °F 18.5 °F 19.8 °F 79% 30.26 in 10.0 mi North 5.8 mph - N/A   Overcast